Location: White Mills Observatory
(37.5374°N, 86.0303°W)
Time: 15:23:32
(UTC-04:00)

Hubble Space Telescope - Visible Passes

Search period start: 27 August 2015 00:00
Search period end: 06 September 2015 00:00
Orbit: 541 x 545 km, 28.5° (Epoch: 26 August)

Date Brightness Start Highest point End Pass type
(mag) Time Alt. Az. Time Alt. Az. Time Alt. Az.
03 Sep 3.3 06:02:48 10° S 06:03:46 11° SSE 06:04:49 10° SE visible
04 Sep 3.1 05:53:17 11° S 05:54:42 13° SSE 05:56:41 10° SE visible
05 Sep 2.8 05:44:53 15° S 05:45:39 15° SSE 05:48:07 10° SE visible
